Location: Grasslands National Park East Block
(49.0708°N, 106.5295°W)
Time: 01:06:04
(UTC-06:00)

Vanguard 1 Rocket - Pass Details

Date: 24 September 2019
Orbit: 650 x 4226 km, 34.3° (Epoch: 20 October)

Event Time Altitude Azimuth Distance (km) Brightness Sun altitude
Rises 18:23:45 0° 238° (WSW) 8,458 13.7 5.1°
Reaches altitude 10° 18:30:16 10° 234° (SW) 7,303 13.2 4.0°
Maximum altitude 18:51:38 45° 172° (S) 3,829 10.6 0.5°
Drops below altitude 10° 19:04:28 10° 105° (ESE) 4,562 10.3 -1.6°
Enters shadow 19:06:57 - 100° (E) 5,072 10.5 -2.0°
Sets 19:07:26 0° 99° (E) 5,180 - -2.0°
